Regional Weather Roundup
Issued by NWS

Home | Current Version | Previous Version | Text Only | Print | Product List | Glossary Off
Versions: 1 2 3 4 5 6 7 8 9 10 11 12 13 14 15 16 17 18 19 20 21 22 23 24 25 26 27 28

000
ASUS45 KCYS 282310
RWRWY

WYOMING REGIONAL WEATHER ROUNDUP
NATIONAL WEATHER SERVICE CHEYENNE WY
500 PM MDT SUN MAY 28 2017

NOTE:  "FAIR" INDICATES FEW OR NO CLOUDS BELOW 12,000 FEET
WITH NO SIGNIFICANT WEATHER AND/OR OBSTRUCTIONS TO VISIBILITY.

WYZ001-290000-
YELLOWSTONE NATIONAL PARK

CITY           SKY/WX    TMP DP  RH WIND       PRES   REMARKS
LK YELLOWSTONE   N/A     46  42  86 CALM      30.39R
W YELLOWSTONE  NOT AVBL

$$
WYZ002>013-054>058-071-098>099-290000-
NORTHERN WYOMING

CITY           SKY/WX    TMP DP  RH WIND       PRES   REMARKS
JACKSON        NOT AVBL
CODY           FAIR      62  41  46 NW8       30.28R
GREYBULL       FAIR      67  41  38 E9        30.19F
WORLAND        CLOUDY    63  43  48 N25G38    30.20R
SHERIDAN       PTSUNNY   61  45  55 N20G32    30.22R
BUFFALO        FAIR      66  37  34 NW20G30   30.22F
GILLETTE       FAIR      59  42  53 N33G44    30.20R
HULETT         MOCLDY    63  43  48 W18       30.13R
NEWCASTLE      FAIR      64  34  32 NW37G46   30.12R

$$
WYZ014>020-022>026-101>103-290000-
CENTRAL WYOMING

CITY           SKY/WX    TMP DP  RH WIND       PRES   REMARKS
BIG PINEY      FAIR      64  24  21 CALM      30.30F
PINEDALE       MOCLDY    64  27  24 N7G21     30.30F
DUBOIS         MOCLDY    59  23  25 N8G17     30.28F
LANDER         FAIR      69  36  29 VRB6      30.19F
RIVERTON       CLOUDY    66  36  32 NE14      30.22S
CASPER         PTSUNNY   62  41  46 NE13      30.22F
DOUGLAS        FAIR      63  42  46 NW16G23   30.20F

$$
WYZ021-027>030-104>119-290000-
SOUTHERN WYOMING

CITY           SKY/WX    TMP DP  RH WIND       PRES   REMARKS
EVANSTON       FAIR      65  31  28 MISG      30.30F
KEMMERER         N/A     63  28  27 NW3       30.32F
FORT BRIDGER   FAIR      68  28  21 N8        30.32F
ROCK SPRINGS   FAIR      66  21  18 VRB5      30.28F
DIXON            N/A     67  27  21 W5        30.29F
RAWLINS        CLOUDY    67  24  19 W9        30.27F
SARATOGA       FAIR      64  27  24 W9G22     30.29F
LARAMIE        FAIR      63  28  26 NW14G25   30.27S
CHEYENNE       PTSUNNY   64  36  35 NE10      30.22F
TORRINGTON     FAIR      64  41  42 N12G23    30.16S
PINE BLUFFS    FAIR      68  36  30 N8        30.19F

$$




USA.gov is the U.S. government's official web portal to all federal, state and local government web resources and services.